This is the latest recevied weather packets stored in our database for station/object F5OWB. If no packets are shown the sender has not sent any weather packets the latest 10 day(s).
| Time | Temp. | Humidity | Pressure | Rain* | Wind** | Luminosity | Snow |
|---|---|---|---|---|---|---|---|
| 1778160709 | 17.78° C | 56% | 1017.8 hPa | 0 mm | - | 717 W/m² | - |
| 1778160652 | 17.22° C | 56% | 1017.8 hPa | 0 mm | - | 719 W/m² | - |
| 1778160589 | 17.22° C | 55% | 1017.8 hPa | 0 mm | - | 722 W/m² | - |
| 1778160532 | 17.22° C | 57% | 1017.8 hPa | 0 mm | - | 722 W/m² | - |
| 1778160473 | 17.22° C | 58% | 1017.8 hPa | 0 mm | - | 724 W/m² | - |
| 1778160409 | 17.22° C | 59% | 1017.8 hPa | 0 mm | - | 722 W/m² | - |
| 1778160350 | 17.22° C | 56% | 1017.8 hPa | 0 mm | - | 728 W/m² | - |
| 1778160292 | 17.22° C | 55% | 1017.8 hPa | 0 mm | - | 733 W/m² | - |
| 1778160232 | 17.22° C | 55% | 1017.8 hPa | 0 mm | - | 738 W/m² | - |
| 1778160174 | 17.22° C | 54% | 1017.8 hPa | 0 mm | - | 742 W/m² | - |
| 1778160109 | 17.22° C | 55% | 1017.8 hPa | 0 mm | - | 738 W/m² | - |
| 1778160049 | 17.22° C | 56% | 1017.8 hPa | 0 mm | - | 738 W/m² | - |
| 1778159990 | 17.22° C | 54% | 1017.8 hPa | 0 mm | - | 738 W/m² | - |
| 1778159928 | 17.22° C | 57% | 1017.9 hPa | 0 mm | - | 745 W/m² | - |
| 1778159868 | 17.22° C | 56% | 1017.9 hPa | 0 mm | - | 745 W/m² | - |
| 1778159805 | 17.22° C | 55% | 1017.9 hPa | 0 mm | - | 751 W/m² | - |
| 1778159745 | 17.22° C | 57% | 1017.9 hPa | 0 mm | - | 759 W/m² | - |
| 1778159686 | 17.22° C | 55% | 1017.9 hPa | 0 mm | - | 770 W/m² | - |
| 1778159625 | 17.22° C | 57% | 1017.9 hPa | 0 mm | - | 773 W/m² | - |
| 1778159572 | 17.22° C | 54% | 1017.9 hPa | 0 mm | - | 773 W/m² | - |
| 1778159571 | 17.22° C | 54% | 1017.9 hPa | 0 mm | - | 773 W/m² | - |
| 1778159506 | 17.22° C | 54% | 1018 hPa | 0 mm | - | 798 W/m² | - |
| 1778159445 | 17.22° C | 57% | 1018 hPa | 0 mm | - | 798 W/m² | - |
| 1778159386 | 17.22° C | 56% | 1017.9 hPa | 0 mm | - | 798 W/m² | - |
| 1778159326 | 17.22° C | 57% | 1017.9 hPa | 0 mm | - | 798 W/m² | - |
* Rain latest hour (hover to see other rain measurements)
** Current wind speed in m/s (hover to see current wind gust speed)